CAPE
nan nan nan nan nan nan nan nan nan nan nan nan nan nan nan nan nan nan nan nan nan nan nan nan nan nan nan 23 73 73 90 93 106 106 117 125 132 132 144 151 151 167 175 183 183 175 161 154 154 158 181 231 236 236 205 161 161 149 140 161 161 211 273 307 307 293 235 187 151 151 136 147 176 176 198 200 180 180 162 149 149 139 130 133 133 174
nan nan nan 1 1 nan nan 3 0 0 nan nan nan nan nan nan nan nan nan nan nan nan nan nan nan nan nan 0 57 57 92 107 116 116 122 129 135 135 141 162 162 174 184 191 191 179 172 175 175 201 254 268 242 242 201 173 173 149 135 144 144 196 249 291 291 308 291 246 188 188 162 168 178 178 183 169 157 157 137 134 134 131 121 129 129 149
nan 4 9 6 6 3 5 1 nan nan nan nan nan nan nan nan nan nan nan nan nan nan nan nan nan nan nan nan 56 56 99 121 129 129 130 129 128 128 139 154 154 178 188 177 177 172 173 202 202 254 276 255 212 212 193 180 180 156 146 153 153 185 213 269 269 322 318 279 221 221 193 189 180 180 168 157 153 153 153 150 150 152 143 141 141 161
14 21 19 10 10 6 2 nan nan nan nan nan nan nan nan nan nan nan nan nan nan nan nan nan nan nan nan nan 47 47 116 128 133 133 134 133 136 136 141 152 152 161 171 164 164 158 166 213 213 269 274 233 205 205 195 174 174 162 172 184 184 193 223 266 266 284 282 262 225 225 210 197 178 178 163 162 163 163 168 161 161 160 147 151 151 159
24 17 7 0 0 nan nan nan nan nan nan nan nan nan nan nan nan nan 2 0 0 nan nan nan nan nan nan nan 25 25 105 127 129 129 130 127 133 133 136 132 132 141 145 146 146 146 172 221 221 264 243 208 197 197 180 167 167 178 203 224 224 255 288 272 272 262 261 246 224 224 207 191 174 174 177 178 180 180 163 150 150 135 131 128 128 130
2 1 nan nan nan nan nan nan nan nan nan nan nan nan nan nan 3 3 2 nan nan nan nan nan nan nan nan nan 10 10 91 113 119 119 118 121 120 120 119 118 118 135 161 151 151 159 185 232 232 232 207 193 170 170 165 184 184 222 259 255 255 268 268 256 256 239 233 258 253 253 223 204 191 191 185 197 185 185 158 138 138 124 117 112 112 104
4 2 nan nan nan 0 2 0 2 2 0 nan nan nan nan 0 2 2 3 0 0 nan nan nan nan nan nan nan 20 20 77 89 86 86 87 90 95 95 106 129 129 169 192 190 190 189 193 207 207 196 181 178 172 172 205 261 261 310 312 261 261 262 266 262 262 245 222 239 221 221 206 206 187 187 193 185 171 171 149 131 131 112 104 109 109 115
24 15 10 13 13 12 13 12 7 7 2 0 nan nan nan 1 6 6 nan nan nan nan nan nan nan nan nan nan nan nan nan nan nan nan nan 10 66 66 115 169 169 150 121 115 115 124 158 192 192 213 210 219 287 287 346 344 344 349 277 242 242 292 333 360 360 370 337 281 210 210 157 150 141 141 138 128 130 130 126 113 113 99 87 100 100 145
35 17 15 21 21 17 19 10 8 8 7 6 2 2 2 8 0 0 nan nan nan nan nan nan nan nan nan nan nan nan nan nan nan nan 0 nan 4 4 43 56 56 54 68 101 101 140 183 222 222 245 252 253 276 276 292 305 305 262 221 239 239 239 236 258 258 271 258 247 209 209 191 176 156 156 137 123 130 130 134 133 133 116 101 103 103 126
41 20 14 20 20 27 18 11 10 10 20 28 20 20 nan nan nan nan nan nan nan nan nan nan nan nan nan nan nan nan nan 1 46 46 71 61 65 65 36 29 29 21 67 124 124 182 211 245 245 263 263 263 259 259 270 225 225 161 144 142 142 163 196 212 212 228 238 234 226 226 225 211 184 184 149 127 134 134 142 135 135 130 124 120 120 128
22 15 20 30 30 35 27 15 12 12 17 26 1 1 nan nan nan nan nan nan nan nan nan nan nan nan nan nan nan nan nan nan nan nan 5 27 47 47 50 63 63 87 124 163 163 195 217 227 227 238 236 222 199 199 198 179 179 147 151 182 182 195 207 207 207 218 229 247 249 249 249 244 204 204 166 131 122 122 126 128 128 132 134 131 131 143
14 18 38 52 52 44 34 28 54 54 58 20 nan nan nan nan nan nan nan nan nan nan nan nan nan nan nan nan nan nan nan nan nan nan nan nan nan nan 0 0 0 37 72 86 86 126 141 166 166 178 159 126 141 141 153 133 133 144 164 197 197 222 215 209 209 211 235 248 247 247 257 240 197 197 162 134 122 122 123 121 121 124 131 130 130 139
16 26 37 44 44 36 36 56 76 76 48 22 14 14 14 4 nan nan nan nan nan nan nan nan nan nan nan nan nan nan nan nan nan nan nan nan nan nan nan nan nan 1 nan nan nan nan 11 59 59 87 89 89 118 118 138 134 134 154 185 226 226 233 237 223 223 213 221 233 236 236 225 196 183 183 173 168 162 162 151 137 137 132 127 125 125 125
14 27 30 22 22 15 31 55 65 65 41 27 24 24 17 3 nan nan nan nan nan nan nan nan nan nan nan nan nan nan nan nan nan nan nan 4 5 5 12 20 20 3 nan nan nan nan nan nan nan nan 10 45 68 68 86 125 125 166 218 255 255 266 262 225 225 213 247 234 219 219 175 153 129 129 129 119 128 128 141 150 150 150 134 119 119 112
31 30 18 3 3 5 17 27 29 29 26 27 26 26 24 6 0 0 nan nan nan nan nan nan nan nan nan nan nan nan nan nan 13 13 28 22 10 10 13 4 4 nan nan nan nan nan nan nan nan nan nan nan 2 2 53 105 105 216 255 280 280 286 281 240 240 226 240 245 200 200 153 125 105 105 86 79 74 74 83 109 109 137 136 121 121 108
51 25 7 3 3 8 11 12 18 18 25 31 37 37 26 11 0 0 nan nan nan nan nan nan nan nan nan nan nan nan 2 23 29 29 21 5 nan nan nan nan nan nan nan nan nan nan nan nan nan nan nan 1 96 96 170 192 192 259 271 292 292 308 301 271 271 238 239 231 188 188 144 130 119 119 115 99 77 77 63 66 66 92 108 108 108 99
25 12 1 3 3 7 7 10 19 19 28 39 37 37 21 5 nan nan nan nan nan nan nan nan nan nan nan nan 0 0 14 26 8 8 0 0 nan nan nan nan nan nan nan nan nan nan nan nan nan nan nan 32 126 126 213 253 253 244 249 261 261 258 252 256 256 260 255 237 202 202 174 151 172 172 188 170 134 134 81 67 67 62 67 80 80 90
8 1 0 2 2 3 3 9 18 18 30 34 29 29 8 nan nan nan nan nan nan nan nan nan nan nan nan 2 10 10 18 29 7 7 3 0 nan nan nan nan nan nan nan nan nan nan nan nan nan nan 3 114 218 218 225 197 197 184 194 189 189 198 213 250 250 274 263 233 202 202 163 156 195 195 203 157 104 104 78 66 66 61 53 60 60 79
1 0 1 2 2 2 5 10 26 26 42 41 18 18 0 nan nan nan nan nan nan nan nan nan nan nan 0 9 7 7 15 30 21 21 7 nan nan nan nan nan nan nan nan nan nan nan nan nan nan 20 110 153 152 152 139 118 118 115 135 144 144 182 221 254 254 253 231 197 170 170 138 132 128 128 110 80 47 47 36 52 52 66 67 68 68 68
0 1 2 2 2 5 12 22 42 42 60 47 7 7 nan nan nan nan nan 0 0 nan nan nan nan nan 1 3 4 4 11 22 12 12 5 2 nan nan nan 2 2 5 nan 1 1 0 1 4 4 38 91 113 94 94 86 87 87 100 111 143 143 187 241 230 230 204 191 168 134 134 96 76 62 62 56 48 37 37 38 58 58 77 76 73 73 65
6 9 4 2 2 9 19 31 57 57 75 35 nan nan 0 1 4 4 4 nan nan nan nan nan nan nan 1 3 6 6 11 20 13 13 6 5 2 2 3 9 9 9 8 6 6 3 12 3 3 nan 22 63 67 67 77 89 89 113 142 187 187 215 199 183 183 154 136 121 94 94 70 51 41 41 42 57 60 60 67 73 73 71 63 57 57 50
15 14 8 4 4 13 36 41 74 74 54 3 3 3 16 11 1 1 nan nan nan nan nan 0 0 1 1 11 15 15 13 11 10 10 7 5 3 3 22 42 42 10 14 11 11 8 nan nan nan nan 17 51 63 63 81 107 107 141 181 198 198 175 140 121 121 112 103 92 73 73 59 61 83 83 108 100 94 94 92 83 83 65 51 47 47 41
17 15 8 1 1 7 36 38 16 16 5 0 20 20 24 14 2 2 nan nan nan nan nan 0 0 3 12 24 25 25 13 8 7 7 7 9 22 22 46 9 9 6 15 6 6 nan nan nan nan 0 16 52 77 77 103 133 133 170 189 173 173 138 118 101 101 100 96 86 93 93 119 153 110 110 79 70 68 68 65 67 67 58 52 49 49 42
12 3 nan nan nan nan 12 6 2 2 4 19 49 49 47 13 0 0 nan nan nan nan 1 3 3 7 16 29 30 30 17 16 18 18 21 31 30 30 nan nan nan 18 15 nan nan nan nan nan nan 0 4 61 94 94 120 138 138 152 149 128 128 111 107 102 102 105 109 116 154 154 175 123 72 72 54 42 42 42 43 45 45 45 43 43 43 39
nan nan nan nan nan 23 25 13 27 27 35 60 74 74 57 29 8 8 nan nan nan 1 3 6 6 15 14 35 22 22 10 15 33 33 29 17 1 1 nan 3 3 13 2 nan nan nan nan 0 0 1 2 36 93 93 113 120 120 113 106 101 101 102 107 110 110 128 143 163 160 160 117 78 60 60 48 42 39 39 38 39 39 39 37 38 38 34
18 7 11 58 58 158 212 219 184 184 132 89 77 77 36 14 nan nan nan 0 0 3 9 15 15 13 6 6 7 7 6 8 5 5 6 5 0 0 3 3 3 nan nan nan nan nan nan nan nan nan nan 6 63 63 90 85 85 77 87 101 101 109 120 138 138 157 144 123 94 94 76 70 62 62 54 51 49 49 46 44 44 40 35 33 33 29
112 139 190 227 227 222 195 157 150 150 175 172 91 91 28 1 1 1 4 4 4 5 12 14 14 11 6 2 6 6 13 25 6 6 12 24 27 27 8 nan nan nan nan nan nan nan 1 1 1 nan nan nan 8 8 45 61 61 74 91 101 101 108 126 143 143 133 104 84 74 74 72 69 63 63 63 58 54 54 50 46 46 41 36 28 28 24
158 187 191 170 170 133 115 118 145 145 159 171 176 176 76 5 2 2 6 3 3 5 9 11 11 8 7 6 9 9 19 21 9 9 25 31 19 19 nan nan nan nan nan nan nan nan 12 1 1 nan nan nan nan nan 9 55 55 75 87 89 89 96 109 101 101 84 79 74 75 75 74 72 67 67 60 55 51 51 47 43 43 41 36 24 24 5
162 140 107 86 86 81 98 112 131 131 142 137 131 131 65 5 2 2 3 2 2 4 6 7 7 8 10 12 15 15 17 13 8 8 13 8 nan nan nan nan nan nan nan nan nan nan nan nan nan nan nan nan nan nan 1 45 45 60 67 75 75 85 89 82 82 75 72 72 72 72 72 65 59 59 54 53 47 47 44 41 41 36 28 19 19 7
22 27 25 37 37 58 68 41 82 82 116 112 109 109 68 9 2 2 0 nan nan nan 2 7 7 9 16 24 17 17 6 3 9 9 9 2 2 2 0 nan nan nan nan nan nan nan nan nan nan nan nan nan nan nan nan 0 0 4 22 61 61 73 74 76 76 74 69 70 71 71 67 59 54 54 49 45 45 45 41 39 39 32 18 12 12 11
nan nan nan nan nan 2 4 0 28 28 81 96 86 86 51 1 nan nan nan nan nan nan 1 5 5 16 25 16 9 9 3 1 5 5 0 0 2 2 0 nan nan nan nan nan nan nan nan nan nan nan nan nan nan nan nan nan nan nan nan 7 7 27 57 69 69 70 69 64 62 62 59 53 51 51 49 47 43 43 40 40 40 30 16 13 13 9
nan nan nan nan nan nan 0 nan nan nan nan nan nan nan 10 11 5 5 0 4 4 10 19 25 25 24 25 21 15 15 10 nan 4 4 3 nan nan nan nan nan nan nan nan nan nan nan nan nan nan nan nan nan nan nan nan nan nan nan nan nan nan nan 21 33 33 31 29 35 43 43 43 39 39 39 38 33 31 31 29 27 27 24 13 6 6 9
nan nan nan 1 1 nan nan nan nan nan nan nan nan nan nan 1 20 20 15 14 14 15 20 17 17 16 13 11 8 8 3 nan 8 8 17 nan nan nan nan nan nan nan nan nan nan nan nan nan nan nan nan nan nan nan nan nan nan nan nan nan nan nan 1 5 5 4 7 11 15 15 25 27 30 30 31 30 27 27 27 27 27 25 17 4 4 5
nan nan 0 1 1 nan nan nan nan nan nan nan 0 0 1 0 6 6 14 12 12 10 8 6 6 5 5 8 4 4 0 nan 7 7 13 nan nan nan nan nan nan nan nan nan nan nan nan nan nan nan nan nan nan nan nan nan nan nan nan nan nan nan nan nan nan nan nan nan nan nan 2 7 22 22 24 27 28 28 27 26 26 23 18 5 5 1
nan 1 4 nan nan nan nan nan nan nan nan nan nan nan 0 1 0 0 4 4 4 4 2 1 1 1 2 1 2 2 0 nan 0 0 16 nan nan nan nan nan nan nan nan 0 0 nan nan nan nan nan nan nan nan nan nan nan nan nan nan nan nan nan nan nan nan nan nan nan nan nan nan 1 4 4 12 19 27 27 28 23 23 13 45 7 7 0
nan 3 4 nan nan nan nan nan nan nan nan nan nan nan nan nan nan nan nan nan nan 3 6 1 1 1 nan 0 nan nan nan nan 1 1 13 nan nan nan nan nan nan 0 1 1 1 nan nan nan nan 1 3 nan nan nan nan nan nan nan nan nan nan nan nan nan nan nan nan nan 0 0 0 1 4 4 7 23 30 30 25 13 13 7 76 23 23 1
1 4 3 nan nan nan nan nan nan nan nan nan nan nan nan nan nan nan nan nan nan nan 0 4 4 1 9 0 nan nan nan nan nan nan nan nan nan nan nan 2 2 9 2 nan nan nan nan nan nan 1 nan nan nan nan nan nan nan nan nan nan nan nan nan nan nan nan nan 0 3 3 2 1 4 4 8 22 22 22 17 8 8 4 2 20 20 2
3 6 2 nan nan nan nan nan nan nan nan nan nan nan nan nan nan nan nan nan nan nan nan nan nan nan 6 19 0 0 nan nan nan nan nan nan nan nan nan 5 5 9 nan nan nan nan 0 nan nan nan nan nan nan nan nan nan nan nan nan nan nan nan nan nan nan nan nan 2 3 3 3 3 2 2 2 5 4 4 3 2 2 1 1 2 2 3
nan 0 0 0 0 nan nan nan nan nan nan nan nan nan nan nan 0 0 nan nan nan nan nan nan nan nan nan nan 0 0 1 nan nan nan nan nan 0 0 3 1 1 nan nan nan nan 0 nan nan nan nan nan nan nan nan nan nan nan nan nan nan nan nan nan nan nan nan 1 0 2 2 2 0 0 0 0 0 0 0 1 0 0 1 1 nan nan nan
3 3 1 4 4 nan nan nan nan nan nan nan 1 1 0 1 nan nan nan nan nan nan nan nan nan nan nan nan nan nan nan nan nan nan nan nan nan nan nan nan nan nan nan nan nan nan nan nan nan nan nan nan nan nan nan nan nan nan nan nan nan nan nan nan nan nan nan nan nan nan nan nan nan nan nan 0 nan nan nan nan nan 0 2 nan nan nan
8 3 1 nan nan nan nan nan nan nan nan nan nan nan nan nan nan nan nan nan nan nan nan nan nan nan nan nan nan nan nan nan nan nan nan nan nan nan nan nan nan 0 nan nan nan nan nan nan nan nan nan nan nan nan nan nan nan 1 3 nan nan nan nan nan nan nan nan nan nan nan 2 2 1 1 1 1 nan nan nan nan nan nan 0 0 0 nan
17 8 nan nan nan nan nan nan nan nan nan nan nan nan nan nan nan nan nan nan nan nan nan nan nan nan nan nan nan nan nan nan nan nan nan nan nan nan nan nan nan nan nan 0 0 0 2 2 2 0 nan nan nan nan nan nan nan nan nan nan nan nan nan nan nan nan nan nan nan nan 2 1 0 0 0 0 nan nan nan nan nan 1 0 nan nan nan
5 1 nan nan nan nan nan 0 0 0 nan nan nan nan nan nan nan nan nan nan nan nan nan nan nan nan nan nan nan nan nan nan nan nan nan nan nan nan nan nan nan nan 3 9 9 6 3 5 5 nan nan nan nan nan nan nan nan nan nan nan nan nan nan nan nan nan nan nan nan nan nan 0 nan nan nan nan nan nan nan nan nan 3 2 nan nan nan
1 nan nan nan nan nan nan nan nan nan nan nan nan nan nan nan nan nan nan nan nan nan nan nan nan nan nan nan nan nan nan nan nan nan nan 1 nan nan nan nan nan nan 1 7 7 8 7 6 6 nan nan nan nan nan nan nan nan nan nan nan nan nan nan nan nan nan nan nan nan nan nan nan nan nan nan nan nan nan nan nan nan nan nan nan nan nan
nan nan nan nan nan nan nan nan nan nan nan nan nan nan nan nan 0 0 nan nan nan nan nan nan nan nan nan nan nan nan nan nan nan nan nan 0 2 2 nan nan nan nan 0 3 3 4 5 5 5 2 nan nan nan nan nan nan nan nan nan 1 1 5 1 nan nan nan nan nan nan nan nan nan nan nan nan nan nan nan nan nan nan nan nan nan nan nan
nan nan nan nan nan nan nan nan nan nan nan nan nan nan nan nan nan nan nan nan nan nan nan nan nan nan 0 0 nan nan nan nan nan nan nan nan nan nan nan nan nan nan nan nan nan 0 3 4 4 6 3 nan nan nan nan nan nan nan 2 7 7 3 nan nan nan nan nan nan nan nan nan nan nan nan nan nan nan nan nan nan nan nan nan nan nan nan
nan nan nan nan nan nan nan nan nan nan nan nan nan nan nan nan nan nan nan nan nan nan nan nan nan nan nan nan nan nan nan 1 0 0 nan nan nan nan nan nan nan nan nan nan nan nan nan 3 3 3 0 nan nan nan nan nan nan nan nan 0 0 0 nan nan nan nan nan nan nan nan nan nan nan nan nan nan nan nan nan nan nan nan nan nan nan nan
0 nan nan nan nan nan nan nan nan nan nan nan nan nan nan nan nan nan nan nan nan nan 0 nan nan 1 nan nan 0 0 2 3 3 3 nan nan nan nan nan nan nan nan nan nan nan nan nan nan nan nan nan nan nan nan nan nan nan nan nan nan nan nan nan nan nan nan nan nan nan nan nan nan nan nan nan nan nan nan nan nan nan nan nan nan nan nan
nan nan nan nan nan nan nan nan nan nan nan nan nan nan nan nan 16 16 nan nan nan nan nan 0 0 0 nan nan 2 2 11 8 2 2 nan nan nan nan nan nan nan nan nan nan nan nan nan nan nan nan nan nan nan nan nan nan nan nan nan nan nan nan nan nan nan nan nan nan nan nan nan nan nan nan nan nan nan nan nan nan nan nan nan nan nan nan
nan nan nan nan nan nan nan nan nan nan nan nan nan nan nan nan nan nan nan nan nan nan nan nan nan 0 nan nan 1 1 5 4 2 2 nan nan nan nan nan nan nan nan nan nan nan nan nan nan nan 0 11 2 nan nan nan nan nan nan nan nan nan nan nan nan nan nan nan nan nan nan nan nan nan nan nan nan nan nan nan nan nan nan nan nan nan nan
0 nan nan nan nan nan nan nan nan nan nan nan nan nan nan nan nan nan nan nan nan nan nan nan nan nan nan nan 2 2 4 1 0 0 nan nan nan nan nan nan nan nan nan nan nan nan nan nan nan nan nan 6 1 1 nan nan nan nan nan nan nan nan nan nan nan nan nan nan nan nan nan nan nan nan nan nan nan nan nan nan nan nan nan nan nan nan
CIN
nan nan nan nan nan nan nan nan nan nan nan nan nan nan nan nan nan nan nan nan nan nan nan nan nan nan nan -9 -0 -0 -0 -0 -0 -0 -0 -0 -0 -0 -0 -0 -0 -0 -0 -0 -0 -0 -0 -0 -0 -0 -0 -0 -0 -0 -0 -0 -0 -0 -0 -0 -0 -0 -0 -0 -0 -0 -0 -0 -0 -0 -0 -0 -0 -0 -0 -0 -0 -0 -0 -0 -0 -0 -0 -0 -0 -0
nan nan nan -45 -45 nan nan -43 -51 -51 nan nan nan nan nan nan nan nan nan nan nan nan nan nan nan nan nan -51 -0 -0 -0 -0 -0 -0 -0 -0 -0 -0 -0 -0 -0 -0 -0 -0 -0 -0 -0 -0 -0 -0 -0 -0 -0 -0 -0 -0 -0 -0 -0 -0 -0 -0 -0 -0 -0 -0 -0 -0 -0 -0 -0 -0 -0 -0 -0 -0 -0 -0 -0 -0 -0 -0 -0 -0 -0 -0
nan -4 -1 -18 -18 -19 -13 -29 nan nan nan nan nan nan nan nan nan nan nan nan nan nan nan nan nan nan nan nan -0 -0 -0 -0 -0 -0 -0 -0 -0 -0 -0 -0 -0 -0 -0 -0 -0 -0 -0 -0 -0 -0 -0 -0 -0 -0 -0 -0 -0 -0 -0 -0 -0 -0 -0 -0 -0 -0 -0 -0 -0 -0 -0 -0 -0 -0 -0 -0 -0 -0 -0 -0 -0 -0 -0 -0 -0 -0
-2 -0 -1 -11 -11 -18 -21 nan nan nan nan nan nan nan nan nan nan nan nan nan nan nan nan nan nan nan nan nan -0 -0 -0 -0 -0 -0 -0 -0 -0 -0 -0 -0 -0 -0 -0 -0 -0 -0 -0 -0 -0 -0 -0 -0 -0 -0 -0 -0 -0 -0 -0 -0 -0 -0 -0 -0 -0 -0 -0 -0 -0 -0 -0 -0 -0 -0 -0 -0 -0 -0 -0 -0 -0 -0 -0 -0 -0 -0
-2 -5 -14 -20 -20 nan nan nan nan nan nan nan nan nan nan nan nan nan -34 -40 -40 nan nan nan nan nan nan nan -5 -5 -0 -0 -0 -0 -0 -0 -0 -0 -0 -0 -0 -0 -0 -0 -0 -0 -0 -0 -0 -0 -0 -0 -0 -0 -0 -0 -0 -0 -0 -0 -0 -0 -0 -0 -0 -0 -0 -0 -0 -0 -0 -0 -0 -0 -0 -0 -0 -0 -0 -0 -0 -0 -0 -0 -0 -0
-23 -14 nan nan nan nan nan nan nan nan nan nan nan nan nan nan -31 -31 -43 nan nan nan nan nan nan nan nan nan -8 -8 -0 -0 -0 -0 -0 -0 -0 -0 -0 -0 -0 -0 -0 -0 -0 -0 -0 -0 -0 -0 -0 -0 -0 -0 -0 -0 -0 -0 -0 -1 -1 -0 -0 -0 -0 -0 -0 -0 -0 -0 -0 -0 -0 -0 -0 -0 -0 -0 -0 -0 -0 -0 -0 -0 -0 -0
-5 -9 nan nan nan -32 -34 -42 -24 -24 -29 nan nan nan nan -41 -35 -35 -26 -29 -29 nan nan nan nan nan nan nan -0 -0 -0 -0 -0 -0 -0 -0 -0 -0 -0 -0 -0 -0 -0 -0 -0 -0 -0 -0 -0 -0 -0 -0 -0 -0 -0 -0 -0 -0 -0 -0 -0 -0 -0 -0 -0 -0 -0 -0 -0 -0 -0 -0 -0 -0 -0 -0 -0 -0 -0 -0 -0 -0 -0 -0 -0 -0
-12 -16 -16 -10 -10 -14 -14 -20 -32 -32 -46 -34 nan nan nan -14 -21 -21 nan nan nan nan nan nan nan nan nan nan nan nan nan nan nan nan nan -0 -0 -0 -0 -0 -0 -0 -0 -0 -0 -0 -0 -0 -0 -0 -0 -0 -0 -0 -0 -0 -0 -0 -0 -0 -0 -0 -0 -0 -0 -0 -0 -0 -0 -0 -0 -0 -0 -0 -0 -0 -0 -0 -0 -0 -0 -0 -0 -0 -0 -0
-14 -6 -8 -5 -5 -10 -5 -15 -37 -37 -54 -42 -42 -42 -11 -7 -22 -22 nan nan nan nan nan nan nan nan nan nan nan nan nan nan nan nan -1 nan -6 -6 -0 -0 -0 -0 -0 -0 -0 -0 -0 -0 -0 -0 -0 -0 -0 -0 -0 -0 -0 -0 -0 -0 -0 -0 -0 -0 -0 -0 -0 -0 -0 -0 -0 -0 -0 -0 -0 -0 -0 -0 -0 -0 -0 -0 -0 -0 -0 -0
-5 -4 -11 -15 -15 -22 -15 -14 -33 -33 -54 -42 -11 -11 nan nan nan nan nan nan nan nan nan nan nan nan nan nan nan nan nan -0 -0 -0 -0 -0 -0 -0 -0 -0 -0 -0 -0 -0 -0 -0 -0 -0 -0 -0 -0 -0 -0 -0 -0 -0 -0 -0 -0 -0 -0 -0 -0 -0 -0 -0 -0 -0 -0 -0 -0 -0 -0 -0 -0 -0 -0 -0 -1 -0 -0 -0 -0 -0 -0 -0
-9 -13 -12 -19 -19 -26 -31 -35 -39 -39 -59 -35 -43 -43 nan nan nan nan nan nan nan nan nan nan nan nan nan nan nan nan nan nan nan nan -1 -0 -0 -0 -0 -0 -0 -0 -0 -0 -0 -0 -0 -0 -0 -0 -0 -0 -0 -0 -0 -0 -0 -0 -0 -0 -0 -0 -0 -0 -0 -0 -0 -0 -0 -0 -0 -0 -0 -0 -0 -0 -0 -0 -1 -0 -0 -0 -0 -0 -0 -0
-26 -16 -16 -15 -15 -20 -26 -36 -28 -28 -15 -21 nan nan nan nan nan nan nan nan nan nan nan nan nan nan nan nan nan nan nan nan nan nan nan nan nan nan -3 -8 -8 -0 -0 -0 -0 -0 -0 -0 -0 -0 -0 -0 -0 -0 -0 -0 -0 -0 -0 -0 -0 -0 -0 -0 -0 -0 -0 -0 -0 -0 -0 -0 -0 -0 -0 -0 -0 -0 -0 -0 -0 -0 -0 -0 -0 -0
-27 -22 -18 -15 -15 -19 -21 -15 -7 -7 -10 -14 -14 -14 -12 -17 nan nan nan nan nan nan nan nan nan nan nan nan nan nan nan nan nan nan nan nan nan nan nan nan nan -46 nan nan nan nan -5 -0 -0 -0 -0 -0 -0 -0 -0 -0 -0 -0 -0 -0 -0 -0 -0 -0 -0 -0 -0 -0 -0 -0 -0 -0 -0 -0 -0 -0 -0 -0 -0 -0 -0 -0 -0 -0 -0 -0
-30 -26 -18 -16 -16 -20 -17 -11 -7 -7 -7 -7 -13 -13 -17 -23 nan nan nan nan nan nan nan nan nan nan nan nan nan nan nan nan nan nan nan -17 -18 -18 -10 -10 -10 -24 nan nan nan nan nan nan nan nan -1 -0 -0 -0 -0 -0 -0 -0 -0 -0 -0 -0 -0 -0 -0 -0 -0 -0 -0 -0 -0 -0 -0 -0 -0 -0 -0 -0 -0 -0 -0 -0 -0 -0 -0 -0
-16 -17 -23 -20 -20 -14 -14 -14 -11 -11 -8 -6 -13 -13 -17 -22 -30 -30 nan nan nan nan nan nan nan nan nan nan nan nan nan nan -13 -13 -5 -13 -25 -25 -18 -23 -23 nan nan nan nan nan nan nan nan nan nan nan -16 -16 -2 -1 -1 -0 -0 -0 -0 -0 -0 -0 -0 -0 -0 -0 -0 -0 -0 -0 -0 -0 -0 -0 -0 -0 -0 -0 -0 -0 -0 -0 -0 -0
-10 -17 -29 -8 -8 -9 -11 -11 -7 -7 -6 -8 -9 -9 -10 -10 -23 -23 nan nan nan nan nan nan nan nan nan nan nan nan -14 -21 -9 -9 -3 -11 nan nan nan nan nan nan nan nan nan nan nan nan nan nan nan -9 -0 -0 -0 -0 -0 -0 -0 -0 -0 -0 -0 -0 -0 -0 -0 -0 -0 -0 -0 -0 -0 -0 -0 -0 -0 -0 -0 -0 -0 -0 -0 -0 -0 -0
-10 -32 -33 -9 -9 -10 -10 -8 -4 -4 -6 -5 -7 -7 -6 -12 nan nan nan nan nan nan nan nan nan nan nan nan -15 -15 -13 -13 -20 -20 -23 -16 nan nan nan nan nan nan nan nan nan nan nan nan nan nan nan -0 -0 -0 -0 -0 -0 -0 -0 -0 -0 -0 -0 -0 -0 -0 -0 -0 -0 -0 -0 -0 -0 -0 -0 -0 -0 -0 -0 -0 -0 -0 -0 -0 -0 -0
-31 -42 -13 -14 -14 -13 -12 -8 -7 -7 -10 -4 -5 -5 -9 nan nan nan nan nan nan nan nan nan nan nan nan -8 -2 -2 -7 -7 -17 -17 -14 -11 nan nan nan nan nan nan nan nan nan nan nan nan nan nan -6 -0 -0 -0 -0 -0 -0 -0 -0 -0 -0 -0 -0 -0 -0 -0 -0 -0 -0 -0 -0 -0 -0 -0 -0 -0 -0 -0 -0 -0 -0 -0 -0 -0 -0 -0
-32 -8 -11 -13 -13 -14 -10 -5 -0 -0 -0 -3 -5 -5 -26 nan nan nan nan nan nan nan nan nan nan nan -17 -6 -4 -4 -10 -5 -5 -5 -7 nan nan nan nan nan nan nan nan nan nan nan nan nan nan -2 -0 -0 -0 -0 -0 -0 -0 -0 -0 -0 -0 -0 -0 -0 -0 -0 -0 -0 -0 -0 -0 -0 -0 -0 -0 -0 -0 -0 -0 -0 -0 -0 -0 -0 -0 -0
-19 -6 -8 -11 -11 -10 -7 -2 -0 -0 -0 -3 -7 -7 nan nan nan nan nan -11 -11 nan nan nan nan nan -15 -10 -9 -9 -12 -7 -8 -8 -10 -9 nan nan nan -4 -4 -5 nan -12 -12 -28 -32 -13 -13 -1 -0 -0 -0 -0 -0 -0 -0 -0 -0 -0 -0 -0 -0 -0 -0 -0 -0 -0 -0 -0 -0 -0 -0 -0 -0 -0 -0 -0 -0 -0 -0 -0 -0 -0 -0 -0
-8 -7 -10 -12 -12 -7 -3 -2 -3 -3 -3 -8 nan nan -16 -12 -7 -7 -7 nan nan nan nan nan nan nan -13 -9 -6 -6 -9 -9 -6 -6 -9 -9 -4 -4 -3 -5 -5 -3 -4 -20 -20 -36 -22 -13 -13 nan -0 -0 -0 -0 -0 -0 -0 -0 -0 -0 -0 -0 -0 -0 -0 -0 -0 -0 -0 -0 -0 -0 -0 -0 -0 -0 -0 -0 -0 -0 -0 -0 -0 -0 -0 -0
-8 -8 -14 -17 -17 -8 -0 -6 -4 -4 -8 -27 -21 -21 -8 -8 -7 -7 nan nan nan nan nan -11 -11 -10 -9 -5 -6 -6 -16 -18 -8 -8 -8 -6 -3 -3 -6 -3 -3 -3 -15 -24 -24 -28 nan nan nan nan -0 -0 -0 -0 -0 -0 -0 -0 -0 -0 -0 -0 -0 -0 -0 -0 -0 -0 -0 -0 -0 -0 -0 -0 -0 -0 -0 -0 -0 -0 -0 -0 -0 -0 -0 -0
-10 -11 -18 -25 -25 -14 -5 -12 -18 -18 -23 -34 -8 -8 -8 -4 -29 -29 nan nan nan nan nan -13 -13 -10 -7 -5 -10 -10 -21 -21 -16 -16 -9 -4 -0 -0 -7 -20 -20 -27 -20 -29 -29 nan nan nan nan -14 -0 -0 -0 -0 -0 -0 -0 -0 -0 -0 -0 -0 -0 -0 -0 -0 -0 -0 -0 -0 -0 -0 -0 -0 -0 -0 -0 -0 -0 -0 -0 -0 -0 -0 -0 -0
-17 -26 nan nan nan nan -18 -13 -49 -49 -47 -15 -9 -9 -12 -24 -35 -35 nan nan nan nan -15 -12 -12 -9 -8 -7 -10 -10 -24 -30 -19 -19 -4 -1 -3 -3 nan nan nan -13 -14 nan nan nan nan nan nan -19 -9 -0 -0 -0 -0 -0 -0 -0 -0 -0 -0 -0 -0 -0 -0 -0 -0 -0 -0 -0 -0 -0 -0 -0 -0 -0 -0 -0 -0 -0 -0 -0 -0 -0 -0 -0
nan nan nan nan nan -24 -14 -22 -16 -16 -17 -13 -8 -8 -8 -8 -5 -5 nan nan nan -15 -12 -8 -8 -4 -7 -0 -4 -4 -31 -44 -18 -18 -3 -4 -12 -12 nan -35 -35 -13 -13 nan nan nan nan -24 -24 -22 -19 -0 -0 -0 -0 -0 -0 -0 -0 -0 -0 -0 -0 -0 -0 -0 -0 -0 -0 -0 -0 -0 -0 -0 -0 -0 -0 -0 -0 -0 -0 -0 -0 -0 -0 -0
-0 -0 -1 -0 -0 -0 -0 -0 -0 -0 -0 -10 -9 -9 -9 -8 nan nan nan -14 -14 -8 -6 -3 -3 -3 -6 -5 -4 -4 -15 -41 -24 -24 -7 -7 -18 -18 -17 -30 -30 nan nan nan nan nan nan nan nan nan nan -18 -0 -0 -0 -0 -0 -0 -0 -0 -0 -0 -0 -0 -0 -0 -0 -0 -0 -0 -0 -0 -0 -0 -0 -0 -0 -0 -0 -0 -0 -0 -0 -0 -0 -0
-0 -0 -0 -0 -0 -0 -0 -0 -0 -0 -0 -0 -0 -0 -7 -17 -16 -16 -9 -7 -7 -6 -4 -3 -3 -4 -7 -8 -5 -5 -8 -14 -17 -17 -12 -6 -6 -6 -15 nan nan nan nan nan nan nan -19 -14 -14 nan nan nan -3 -3 -0 -0 -0 -0 -0 -0 -0 -0 -0 -0 -0 -0 -0 -0 -0 -0 -0 -0 -0 -0 -0 -0 -0 -0 -0 -0 -0 -0 -0 -0 -0 -0
-0 -0 -0 -0 -0 -0 -0 -0 -0 -0 -0 -0 -0 -0 -0 -13 -12 -12 -7 -8 -8 -7 -3 -3 -3 -3 -4 -5 -5 -5 -10 -12 -28 -28 -22 -5 -6 -6 nan nan nan nan nan nan nan nan -0 -6 -6 nan nan nan nan nan -2 -0 -0 -0 -0 -0 -0 -0 -0 -0 -0 -0 -0 -0 -0 -0 -0 -0 -0 -0 -0 -0 -0 -0 -0 -0 -0 -0 -0 -0 -0 -5
-0 -0 -0 -0 -0 -0 -0 -0 -0 -0 -0 -0 -0 -0 -0 -13 -11 -11 -8 -9 -9 -6 -2 -0 -0 -1 -2 -4 -6 -6 -10 -11 -26 -26 -25 -5 nan nan nan nan nan nan nan nan nan nan nan nan nan nan nan nan nan nan -12 -0 -0 -0 -0 -0 -0 -0 -0 -0 -0 -0 -0 -0 -0 -0 -0 -0 -0 -0 -0 -0 -0 -0 -0 -0 -0 -0 -0 -0 -0 -3
-0 -0 -0 -0 -0 -0 -0 -0 -0 -0 -0 -0 -0 -0 -0 -10 -10 -10 -10 nan nan nan -2 -1 -1 -1 -2 -4 -9 -9 -11 -16 -32 -32 -21 -8 -8 -8 -11 nan nan nan nan nan nan nan nan nan nan nan nan nan nan nan nan -14 -14 -5 -0 -0 -0 -0 -0 -0 -0 -0 -0 -0 -0 -0 -0 -0 -0 -0 -0 -0 -0 -0 -0 -0 -0 -0 -0 -2 -2 -2
nan nan nan nan nan -13 -20 -37 -4 -4 -0 -0 -0 -0 -0 -15 nan nan nan nan nan nan -3 -0 -0 -0 -1 -5 -7 -7 -10 -22 -34 -34 -30 -7 -4 -4 -4 nan nan nan nan nan nan nan nan nan nan nan nan nan nan nan nan nan nan nan nan -3 -3 -0 -0 -0 -0 -0 -0 -0 -0 -0 -0 -0 -0 -0 -0 -0 -0 -0 -0 -0 -0 -0 -1 -1 -1 -3
nan nan nan nan nan nan -19 nan nan nan nan nan nan nan -0 -0 -5 -5 -12 -7 -7 -4 -2 -2 -2 -2 -2 -2 -2 -2 -3 nan -10 -10 -11 nan nan nan nan nan nan nan nan nan nan nan nan nan nan nan nan nan nan nan nan nan nan nan nan nan nan nan -0 -0 -0 -0 -0 -0 -0 -0 -0 -0 -0 -0 -0 -0 -0 -0 -0 -0 -0 -0 -0 -1 -1 -1
nan nan nan -15 -15 nan nan nan nan nan nan nan nan nan nan -10 -0 -0 -5 -7 -7 -5 -2 -2 -2 -2 -2 -3 -4 -4 -5 nan -2 -2 -3 nan nan nan nan nan nan nan nan nan nan nan nan nan nan nan nan nan nan nan nan nan nan nan nan nan nan nan -7 -4 -4 -6 -1 -0 -0 -0 -0 -0 -0 -0 -0 -0 -0 -0 -0 -0 -0 -0 -0 -0 -0 -1
nan nan -12 -12 -12 nan nan nan nan nan nan nan -10 -10 -11 -12 -9 -9 -4 -7 -7 -7 -6 -4 -4 -2 -2 -1 -3 -3 -4 nan -0 -0 -2 nan nan nan nan nan nan nan nan nan nan nan nan nan nan nan nan nan nan nan nan nan nan nan nan nan nan nan nan nan nan nan nan nan nan nan -2 -0 -0 -0 -0 -0 -0 -0 -0 -0 -0 -0 -0 -0 -0 -2
nan -8 -5 nan nan nan nan nan nan nan nan nan nan nan -11 -11 -14 -14 -11 -9 -9 -9 -9 -7 -7 -5 -3 -2 -2 -2 -3 nan -6 -6 -0 nan nan nan nan nan nan nan nan -5 -5 nan nan nan nan nan nan nan nan nan nan nan nan nan nan nan nan nan nan nan nan nan nan nan nan nan nan -1 -0 -0 -0 -0 -0 -0 -0 -0 -0 -0 -0 -0 -0 -2
nan -5 -5 nan nan nan nan nan nan nan nan nan nan nan nan nan nan nan nan nan nan -7 -3 -8 -8 -8 nan -4 nan nan nan nan -4 -4 -0 nan nan nan nan nan nan -5 -3 -5 -5 nan nan nan nan -3 -1 nan nan nan nan nan nan nan nan nan nan nan nan nan nan nan nan nan -3 -3 -2 -0 -0 -0 -0 -0 -0 -0 -0 -0 -0 -0 -0 -0 -0 -0
-5 -3 -6 nan nan nan nan nan nan nan nan nan nan nan nan nan nan nan nan nan nan nan -9 -3 -3 -5 -2 -7 nan nan nan nan nan nan nan nan nan nan nan -3 -3 -1 -2 nan nan nan nan nan nan -3 nan nan nan nan nan nan nan nan nan nan nan nan nan nan nan nan nan -2 -0 -0 -0 -0 -0 -0 -0 -0 -0 -0 -0 -0 -0 -0 -0 -0 -0 -0
-3 -3 -7 nan nan nan nan nan nan nan nan nan nan nan nan nan nan nan nan nan nan nan nan nan nan nan -5 -2 -10 -10 nan nan nan nan nan nan nan nan nan -1 -1 -2 nan nan nan nan -2 nan nan nan nan nan nan nan nan nan nan nan nan nan nan nan nan nan nan nan nan -1 -0 -0 -0 -0 -0 -0 -0 -0 -0 -0 -0 -0 -0 -0 -0 -0 -0 -0
nan -5 -7 -7 -7 nan nan nan nan nan nan nan nan nan nan nan -7 -7 nan nan nan nan nan nan nan nan nan nan -7 -7 -6 nan nan nan nan nan -3 -3 -2 -3 -3 nan nan nan nan -1 nan nan nan nan nan nan nan nan nan nan nan nan nan nan nan nan nan nan nan nan -3 -0 -0 -0 -0 -0 -0 -0 -0 -1 -1 -1 -0 -1 -1 -0 -0 nan nan nan
-3 -4 -5 -2 -2 nan nan nan nan nan nan nan -3 -3 -4 -3 nan nan nan nan nan nan nan nan nan nan nan nan nan nan nan nan nan nan nan nan nan nan nan nan nan nan nan nan nan nan nan nan nan nan nan nan nan nan nan nan nan nan nan nan nan nan nan nan nan nan nan nan nan nan nan nan nan nan nan -0 nan nan nan nan nan -1 -0 nan nan nan
-0 -4 -5 nan nan nan nan nan nan nan nan nan nan nan nan nan nan nan nan nan nan nan nan nan nan nan nan nan nan nan nan nan nan nan nan nan nan nan nan nan nan -1 nan nan nan nan nan nan nan nan nan nan nan nan nan nan nan -0 -0 nan nan nan nan nan nan nan nan nan nan nan -0 -0 -0 -0 -0 -0 nan nan nan nan nan nan -1 -0 -0 nan
-0 -0 nan nan nan nan nan nan nan nan nan nan nan nan nan nan nan nan nan nan nan nan nan nan nan nan nan nan nan nan nan nan nan nan nan nan nan nan nan nan nan nan nan -1 -1 -2 -2 -2 -2 -2 nan nan nan nan nan nan nan nan nan nan nan nan nan nan nan nan nan nan nan nan -0 -0 -0 -0 -0 -0 nan nan nan nan nan -0 -0 nan nan nan
-0 -2 nan nan nan nan nan -4 -3 -3 nan nan nan nan nan nan nan nan nan nan nan nan nan nan nan nan nan nan nan nan nan nan nan nan nan nan nan nan nan nan nan nan -1 -0 -0 -0 -1 -0 -0 nan nan nan nan nan nan nan nan nan nan nan nan nan nan nan nan nan nan nan nan nan nan -0 nan nan nan nan nan nan nan nan nan -0 -0 nan nan nan
-2 nan nan nan nan nan nan nan nan nan nan nan nan nan nan nan nan nan nan nan nan nan nan nan nan nan nan nan nan nan nan nan nan nan nan -6 nan nan nan nan nan nan -2 -0 -0 -0 -0 -0 -0 nan nan nan nan nan nan nan nan nan nan nan nan nan nan nan nan nan nan nan nan nan nan nan nan nan nan nan nan nan nan nan nan nan nan nan nan nan
nan nan nan nan nan nan nan nan nan nan nan nan nan nan nan nan -3 -3 nan nan nan nan nan nan nan nan nan nan nan nan nan nan nan nan nan -4 -0 -0 nan nan nan nan -3 -0 -0 -0 -0 -0 -0 -2 nan nan nan nan nan nan nan nan nan -1 -1 -1 -3 nan nan nan nan nan nan nan nan nan nan nan nan nan nan nan nan nan nan nan nan nan nan nan
nan nan nan nan nan nan nan nan nan nan nan nan nan nan nan nan nan nan nan nan nan nan nan nan nan nan -5 -6 nan nan nan nan nan nan nan nan nan nan nan nan nan nan nan nan nan -1 -0 -0 -0 -0 -1 nan nan nan nan nan nan nan -0 -0 -0 -0 nan nan nan nan nan nan nan nan nan nan nan nan nan nan nan nan nan nan nan nan nan nan nan nan
nan nan nan nan nan nan nan nan nan nan nan nan nan nan nan nan nan nan nan nan nan nan nan nan nan nan nan nan nan nan nan -5 -9 -9 nan nan nan nan nan nan nan nan nan nan nan nan nan -0 -0 -0 -1 nan nan nan nan nan nan nan nan -0 -0 -0 nan nan nan nan nan nan nan nan nan nan nan nan nan nan nan nan nan nan nan nan nan nan nan nan
-4 nan nan nan nan nan nan nan nan nan nan nan nan nan nan nan nan nan nan nan nan nan -1 nan nan -3 nan nan -5 -5 -2 -2 -4 -4 nan nan nan nan nan nan nan nan nan nan nan nan nan nan nan nan nan nan nan nan nan nan nan nan nan nan nan nan nan nan nan nan nan nan nan nan nan nan nan nan nan nan nan nan nan nan nan nan nan nan nan nan
nan nan nan nan nan nan nan nan nan nan nan nan nan nan nan nan -0 -0 nan nan nan nan nan -3 -3 -4 nan nan -3 -3 -0 -1 -4 -4 nan nan nan nan nan nan nan nan nan nan nan nan nan nan nan nan nan nan nan nan nan nan nan nan nan nan nan nan nan nan nan nan nan nan nan nan nan nan nan nan nan nan nan nan nan nan nan nan nan nan nan nan
nan nan nan nan nan nan nan nan nan nan nan nan nan nan nan nan nan nan nan nan nan nan nan nan nan -5 nan nan -3 -3 -1 -2 -4 -4 nan nan nan nan nan nan nan nan nan nan nan nan nan nan nan -1 -0 -2 nan nan nan nan nan nan nan nan nan nan nan nan nan nan nan nan nan nan nan nan nan nan nan nan nan nan nan nan nan nan nan nan nan nan
-2 nan nan nan nan nan nan nan nan nan nan nan nan nan nan nan nan nan nan nan nan nan nan nan nan nan nan nan -1 -1 -1 -3 -4 -4 nan nan nan nan nan nan nan nan nan nan nan nan nan nan nan nan nan -0 -0 -0 nan nan nan nan nan nan nan nan nan nan nan nan nan nan nan nan nan nan nan nan nan nan nan nan nan nan nan nan nan nan nan nan
Wind_Speed
11 11 11 14 14 14 13 14 15 15 13 12 12 13 14 15 15 16 18 17 16 15 13 13 13 14 15 19 22 26 29 30 31 31 31 32 33 34 34 34 34 34 33 32 31 31 32 33 34 34 34 34 34 34 33 32 32 32 32 32 31 30 29 30 31 32 33 33 31 30 29 28 28 28 27 27 26 26 25 25 24 24 24 24 23 22
11 11 11 14 15 15 13 14 15 14 14 14 14 14 15 17 16 15 15 16 15 14 13 12 13 14 15 17 21 25 28 29 30 30 31 32 33 34 34 34 34 33 32 31 31 31 32 33 34 34 33 33 34 34 33 32 32 32 33 32 32 30 29 28 29 30 32 32 32 30 29 28 27 27 27 26 26 26 25 25 24 24 23 23 23 23
11 12 11 12 13 14 13 14 14 14 15 16 16 16 18 18 17 14 12 13 13 12 12 12 12 14 15 16 19 23 26 28 29 30 31 32 33 34 34 34 34 33 32 31 31 32 33 34 34 34 33 33 34 34 33 33 33 33 33 32 31 30 29 27 27 28 30 31 31 30 29 28 27 26 26 26 26 25 24 24 23 23 23 23 23 23
11 12 12 11 11 12 13 14 14 14 14 15 17 18 19 17 15 13 11 11 11 11 11 13 13 14 14 14 16 20 24 27 29 30 31 33 34 34 35 35 35 34 33 32 33 33 35 35 35 34 33 33 33 33 33 33 34 33 33 32 31 29 27 26 25 26 27 28 29 29 29 28 27 26 25 25 25 24 23 23 23 23 23 23 23 24
11 12 12 10 10 11 12 13 14 14 13 14 15 16 16 14 12 11 11 11 11 11 11 12 13 13 13 12 14 18 23 27 29 30 32 33 34 35 36 36 36 35 34 33 34 34 35 35 35 34 33 33 33 33 34 34 33 33 32 30 29 27 26 25 25 25 26 26 27 27 28 27 26 26 25 24 23 23 23 22 22 22 23 23 24 24
12 12 11 10 9 10 10 11 12 12 12 12 13 13 13 12 11 11 10 10 10 10 11 11 11 12 12 12 14 18 24 27 29 31 32 33 34 35 35 35 35 34 33 34 34 35 35 35 35 34 34 33 33 33 33 32 31 30 30 29 28 27 27 27 27 27 26 25 25 25 26 26 26 25 25 24 23 22 22 22 22 22 23 23 23 24
12 11 10 10 9 9 10 10 11 11 11 11 11 11 11 11 11 10 9 9 10 10 10 11 11 11 11 13 15 19 22 25 27 29 30 31 32 33 34 33 33 32 32 33 34 34 34 34 34 34 33 33 32 31 30 29 28 28 29 29 28 28 28 29 29 29 28 27 25 25 25 25 26 26 25 24 23 23 22 22 22 22 22 22 23 23
12 11 9 10 10 10 10 10 10 11 11 10 10 10 11 9 8 8 9 10 10 10 10 10 10 10 11 12 14 16 17 18 20 21 23 25 27 29 29 30 30 31 32 33 34 34 34 34 33 32 32 31 31 30 29 28 27 27 27 28 28 27 28 29 29 29 29 27 26 25 25 25 26 26 26 25 24 23 22 22 21 21 21 22 22 23
12 11 10 10 11 12 11 10 10 10 10 10 10 9 9 8 7 7 8 10 10 9 9 10 11 11 11 12 13 14 15 15 16 16 18 18 20 21 24 26 28 29 31 33 34 34 34 33 32 31 30 30 31 31 30 29 27 27 27 27 27 27 28 28 29 29 28 27 26 25 25 26 26 27 26 25 24 22 21 21 21 21 21 21 22 23
11 11 11 11 11 10 11 10 10 10 10 9 7 6 6 7 8 9 9 10 9 8 8 10 11 12 12 12 12 13 14 16 18 20 21 22 24 25 26 25 25 26 29 31 32 32 32 31 30 29 29 30 31 31 31 29 28 27 28 27 27 28 28 29 29 28 27 26 25 24 25 25 26 26 26 24 23 21 20 20 20 20 21 22 23 23
10 10 11 11 10 9 9 9 9 8 8 6 5 4 5 6 8 9 11 11 10 10 10 10 11 12 12 12 11 12 12 13 15 17 20 24 27 29 29 27 27 27 28 29 29 28 28 28 28 28 29 30 30 31 30 29 28 28 28 27 27 27 27 28 28 28 27 25 24 24 24 24 25 25 25 23 22 21 20 19 20 20 21 22 23 23
8 8 8 8 7 7 7 7 7 6 4 4 4 5 6 6 7 8 10 11 11 12 12 11 11 11 11 11 11 11 11 12 13 14 15 18 19 20 20 20 20 20 21 21 21 23 24 26 27 28 28 29 29 29 28 27 27 28 28 27 26 26 26 27 27 26 25 24 23 23 23 24 24 24 24 23 22 21 21 20 21 21 21 22 23 23
8 7 7 7 7 7 7 7 6 4 3 4 6 7 8 7 7 7 7 10 11 12 12 12 12 12 11 11 11 10 11 12 14 14 14 14 13 13 12 12 12 11 11 12 13 15 19 23 25 27 27 27 27 27 27 27 27 27 27 26 26 26 25 26 26 25 24 23 23 23 24 24 24 24 24 23 23 22 22 22 22 22 22 22 22 23
9 8 8 8 8 8 9 9 8 8 7 8 8 9 8 8 7 8 8 10 11 11 12 13 13 13 11 10 10 11 12 13 14 13 13 12 10 9 9 10 10 10 10 11 12 14 17 18 19 19 22 23 24 24 23 24 25 26 26 26 25 25 25 25 26 26 25 25 25 25 25 26 25 25 24 23 23 22 22 23 23 23 23 23 22 22
9 9 8 9 9 9 9 9 10 10 10 10 10 9 9 8 8 9 10 11 11 11 12 13 13 12 10 9 9 10 12 12 12 11 12 10 9 8 9 10 11 12 12 13 13 14 17 16 14 13 15 17 19 20 21 22 23 25 25 25 25 25 25 26 26 26 26 26 26 26 27 27 26 26 25 24 24 23 22 22 22 22 23 22 22 21
8 7 8 9 9 9 9 9 10 11 11 10 10 9 9 9 9 9 10 11 11 11 11 12 12 11 9 8 9 10 10 10 10 11 12 12 10 8 9 10 12 13 13 13 13 13 13 12 12 12 12 16 20 23 24 23 23 24 24 24 25 25 26 27 27 26 26 26 26 26 26 26 26 25 25 25 24 24 23 22 22 22 22 22 21 21
7 7 8 10 10 10 10 10 10 10 10 10 10 9 9 9 9 9 10 11 11 10 10 10 10 9 8 8 8 8 9 9 9 11 13 13 12 11 10 10 11 13 13 12 12 12 11 11 11 11 12 16 20 22 23 23 23 24 25 25 26 27 28 28 27 27 26 25 25 25 25 25 24 23 23 23 24 24 24 24 23 23 22 22 22 22
7 9 10 10 11 11 11 10 10 10 10 10 10 10 10 10 10 10 11 11 11 10 9 9 8 8 9 9 9 8 9 10 10 11 13 14 13 11 11 11 12 13 13 12 11 11 10 11 11 12 13 16 19 21 22 23 24 25 26 28 28 29 29 28 28 27 26 26 25 25 24 24 23 22 22 22 23 24 25 26 26 25 24 22 22 22
10 10 10 11 11 11 11 10 10 10 10 10 9 10 10 11 11 12 12 11 10 9 8 8 9 9 10 11 11 10 9 10 11 13 14 14 13 12 11 12 12 12 11 11 10 10 10 10 12 15 17 19 21 23 24 26 27 28 29 29 29 29 28 28 27 27 26 26 26 25 25 25 24 24 23 23 24 24 25 27 27 27 25 23 22 22
11 11 11 11 11 11 11 11 10 10 10 10 10 10 12 13 13 13 12 9 8 7 8 9 11 12 11 12 12 11 10 10 11 12 13 14 14 13 11 11 11 10 10 9 9 9 9 9 10 12 15 19 22 25 26 28 29 30 30 29 28 27 27 26 27 27 27 27 27 27 27 26 27 26 26 26 25 25 26 27 27 26 24 23 22 22
13 13 12 11 11 11 10 10 10 11 11 11 12 12 13 13 12 11 8 7 7 8 9 10 11 12 12 12 12 12 10 11 11 12 11 12 12 11 9 8 8 8 9 9 8 8 7 8 8 9 13 18 23 26 28 29 29 29 28 27 26 26 26 26 27 27 28 27 27 27 27 27 27 27 26 26 25 25 25 25 25 24 23 22 22 22
13 13 13 13 12 11 11 11 12 12 12 12 12 12 12 11 10 9 7 8 9 10 11 11 12 12 12 13 12 11 10 9 9 10 10 11 12 10 6 5 5 6 8 8 7 7 7 8 9 11 15 21 25 28 28 28 28 27 26 26 26 26 27 28 28 28 28 28 27 26 26 25 24 23 22 23 23 24 24 24 24 23 23 22 22 22
12 12 13 13 12 12 11 11 11 10 11 11 12 11 9 9 9 9 9 10 10 11 12 12 12 13 12 12 11 10 9 8 9 9 9 11 11 9 5 5 6 8 9 8 7 8 9 10 10 12 15 21 25 27 27 27 26 26 25 26 26 27 28 29 29 28 27 26 25 24 23 22 22 22 22 23 24 25 25 25 24 24 24 24 24 24
12 12 12 12 11 10 10 10 10 10 10 10 10 10 9 9 10 10 10 11 11 12 11 12 12 13 12 11 10 9 7 7 7 7 7 9 9 8 6 7 9 10 10 8 8 10 11 11 10 11 12 18 22 24 25 25 25 25 25 26 27 27 28 28 27 26 25 25 24 23 23 23 23 23 24 25 25 26 26 26 25 25 25 25 25 25
13 13 12 12 12 13 13 14 14 15 14 12 11 11 12 13 13 13 12 12 11 11 11 12 12 12 11 11 10 9 7 7 6 6 6 7 9 10 9 8 8 9 10 9 9 10 10 11 11 10 11 15 19 22 23 23 23 24 24 25 25 26 26 25 25 24 24 24 24 25 26 26 26 26 26 26 26 26 26 26 26 26 26 26 27 27
19 18 19 20 22 24 26 26 26 26 25 20 16 13 13 14 13 12 11 11 11 11 11 12 12 11 10 10 10 9 7 6 5 5 5 6 9 10 9 7 7 8 10 10 10 10 10 12 12 11 11 12 14 17 19 20 21 22 22 23 23 24 24 23 23 23 23 25 26 26 27 27 27 27 26 26 26 26 26 26 26 26 27 27 27 27
26 26 27 27 28 29 29 30 30 31 31 27 24 20 17 14 12 11 11 10 10 10 11 11 11 11 11 10 10 9 7 5 4 4 5 7 9 9 8 7 7 8 11 10 10 10 12 12 12 11 10 9 9 11 15 17 19 20 21 21 22 22 22 23 23 24 25 26 26 27 27 27 27 27 27 27 27 27 26 27 27 27 27 26 23 22
22 23 23 25 26 27 28 29 29 28 28 28 28 27 21 15 12 11 11 10 10 10 11 11 11 11 11 10 10 8 7 5 5 5 5 6 7 7 7 7 8 8 10 10 10 10 12 12 11 10 8 7 6 7 10 14 17 18 19 20 21 22 22 23 24 25 25 25 26 26 26 27 27 27 28 28 28 27 27 27 27 27 26 22 18 16
17 20 22 24 25 26 26 25 24 25 26 27 27 25 20 13 11 11 11 10 10 11 12 12 11 11 11 11 10 9 7 6 6 5 5 6 7 8 8 8 8 8 8 8 8 8 8 8 7 6 5 5 5 5 7 10 12 14 16 18 20 21 22 22 23 24 24 25 25 26 26 27 28 28 28 28 28 28 28 28 27 25 20 17 15 14
13 16 17 18 19 20 19 17 17 19 22 24 25 23 18 12 10 10 10 10 11 11 12 12 12 11 10 10 10 9 7 6 5 5 6 6 7 8 8 9 9 8 6 6 6 6 6 5 4 3 3 4 4 4 5 7 8 9 10 13 15 17 19 21 22 23 23 24 25 25 26 27 28 28 29 29 29 29 29 29 26 22 16 14 13 13
12 12 12 12 12 12 12 11 12 14 16 18 19 18 15 11 10 10 10 10 10 10 11 11 11 10 10 9 9 7 6 5 5 6 6 6 7 7 8 9 8 7 5 5 5 6 6 4 3 2 3 4 5 6 6 6 7 7 7 8 10 12 15 19 20 21 22 23 24 25 26 27 27 28 28 29 29 29 29 29 26 21 14 13 13 14
11 11 10 10 10 9 9 9 9 10 10 11 12 12 12 11 10 10 9 9 9 10 10 11 11 10 10 9 9 8 6 6 7 9 9 7 6 6 7 8 8 7 5 5 6 7 7 5 3 2 3 5 6 7 7 7 7 6 7 7 8 9 13 15 17 17 18 19 21 23 25 26 27 27 28 28 28 29 29 29 27 22 15 14 14 14
11 10 10 10 9 9 8 8 8 8 9 9 9 9 10 10 10 10 9 9 9 9 10 10 11 11 10 10 10 9 8 8 9 11 12 8 6 6 6 7 8 8 7 7 7 7 6 5 4 4 5 6 6 6 7 7 6 6 6 6 7 8 10 11 12 12 13 15 17 19 22 23 25 26 26 27 27 27 27 28 28 25 20 16 15 15
12 11 11 10 9 8 8 8 8 9 9 9 9 9 9 9 9 9 9 9 9 9 9 10 10 11 11 10 10 10 9 9 11 13 13 10 7 6 7 8 9 9 8 8 7 6 5 5 6 7 7 7 7 6 6 5 5 5 4 5 5 6 8 8 9 10 11 12 12 13 15 16 18 20 21 22 23 24 25 27 28 28 25 19 16 15
11 11 11 10 9 8 8 9 9 9 9 9 9 9 9 9 8 8 9 9 9 9 9 10 10 10 11 10 10 10 10 10 11 13 14 11 9 7 8 8 8 9 9 8 7 6 5 7 8 9 9 8 7 5 4 4 4 4 4 5 5 6 7 7 8 9 10 11 11 11 11 11 12 13 14 16 18 21 24 27 28 26 23 20 18 15
10 10 10 9 9 9 9 9 9 10 10 9 9 9 9 9 9 8 9 9 9 10 11 11 11 11 11 11 11 11 11 11 12 13 14 12 10 9 8 8 9 9 9 8 7 6 7 8 10 11 11 9 7 6 4 4 5 5 6 6 7 7 7 8 8 9 10 10 10 10 9 9 9 9 10 14 18 22 24 26 25 20 11 16 19 18
10 10 9 9 9 9 9 9 10 10 10 9 9 9 9 9 9 9 9 9 10 10 11 12 12 12 13 12 12 12 12 12 12 13 14 13 11 10 9 9 9 9 9 9 9 9 9 10 10 10 9 8 7 6 7 7 7 7 8 8 8 8 8 8 8 8 9 10 10 10 9 8 8 9 10 14 17 18 18 20 21 18 5 11 18 20
10 9 9 9 8 9 9 9 9 10 10 10 10 10 10 11 11 11 10 10 11 11 11 11 11 12 15 16 15 15 14 15 15 16 16 14 12 11 10 9 9 9 9 10 10 10 10 9 8 8 7 7 8 9 9 9 9 9 9 9 9 8 8 8 7 8 8 9 10 10 9 8 8 8 9 10 10 10 10 11 15 18 15 2 12 18
10 9 9 9 9 9 9 9 10 10 10 10 10 10 11 11 12 12 11 11 11 11 11 11 11 11 13 15 16 17 17 17 17 17 16 14 12 11 10 10 10 10 10 10 9 9 7 6 6 7 8 8 9 9 9 9 9 10 10 10 9 8 8 7 7 8 8 8 8 9 9 7 7 7 7 7 7 7 7 7 10 13 14 9 1 6
10 10 10 10 10 9 9 10 10 10 10 10 11 11 11 11 11 11 11 10 10 11 12 12 11 11 11 12 13 14 15 14 14 14 13 12 11 10 10 10 10 10 9 8 6 5 5 5 7 8 9 8 8 9 8 8 9 10 11 9 8 8 9 9 8 7 6 6 7 7 7 7 6 6 6 6 6 6 6 6 6 8 9 8 7 5
11 10 10 10 10 10 10 10 10 10 10 10 10 10 9 9 9 9 9 10 10 10 10 10 10 10 10 10 10 11 12 12 12 12 11 12 12 11 10 9 9 8 7 5 5 5 6 7 8 9 8 8 8 9 9 9 10 11 12 10 9 10 11 11 9 7 5 5 6 7 7 7 7 7 6 6 6 5 5 5 5 6 6 5 5 5
12 11 10 10 10 9 9 10 10 11 10 10 9 9 9 9 9 9 9 10 9 9 9 8 9 9 10 9 9 9 9 9 10 10 11 12 11 10 8 7 5 5 5 6 7 7 7 8 8 8 8 7 7 7 8 9 10 10 10 10 10 11 11 9 7 4 4 6 6 6 7 7 6 6 6 6 5 5 5 6 6 6 6 5 4 4
11 10 10 10 10 10 10 11 10 10 9 9 9 9 9 9 9 10 10 10 10 10 10 9 9 9 9 9 8 7 6 7 8 10 10 9 8 7 5 5 5 5 6 7 8 8 8 8 7 7 6 5 6 6 8 9 9 9 9 10 10 8 6 6 5 5 6 6 6 6 6 6 5 5 5 4 4 4 5 6 7 8 7 5 4 4
10 10 10 9 9 9 9 9 9 9 9 9 9 9 9 9 10 10 10 10 10 10 9 9 9 9 9 8 8 7 6 6 7 8 7 6 5 4 4 4 5 5 6 7 7 8 8 7 6 5 4 4 5 6 7 8 8 9 9 9 9 8 6 5 6 7 6 6 6 6 6 6 5 5 4 3 4 5 6 6 7 7 7 6 6 5
9 9 9 9 9 9 9 9 9 9 9 9 9 9 9 9 10 10 9 9 10 10 9 9 8 8 7 7 7 7 7 7 6 5 3 3 4 5 5 5 5 6 6 6 7 7 7 6 6 5 4 4 5 6 7 8 8 9 9 9 8 7 6 5 6 6 6 6 6 6 6 6 5 4 3 4 5 6 6 7 8 8 8 7 7 7
9 9 9 9 9 9 10 10 9 9 9 9 9 9 9 9 9 9 10 10 10 10 9 9 8 7 7 7 7 7 7 7 5 4 2 2 2 3 4 5 5 6 6 6 6 7 6 6 6 5 5 4 5 5 6 7 7 7 8 8 8 7 6 6 5 5 5 5 6 6 7 6 5 3 3 4 5 6 7 7 8 9 8 8 8 8
9 10 10 9 9 9 9 9 9 9 9 9 9 9 9 9 9 9 9 9 9 9 9 9 8 7 7 8 8 8 8 8 7 5 4 3 3 4 4 5 6 6 6 6 7 7 6 6 5 5 4 4 4 4 5 5 6 7 7 7 7 6 5 5 4 4 4 5 5 6 7 5 4 3 4 5 6 6 7 8 8 9 8 8 9 9
10 10 10 10 10 10 10 9 9 9 10 10 9 9 9 9 9 10 9 9 9 9 9 8 8 7 7 7 8 8 9 8 7 6 5 5 5 5 5 5 6 6 6 7 7 7 6 6 5 5 4 3 3 4 5 5 6 6 6 6 6 6 5 5 4 4 5 5 6 6 6 5 4 4 4 5 6 6 7 8 8 8 8 8 9 9
10 10 10 10 10 10 10 10 10 10 10 10 10 10 9 10 11 11 9 9 9 8 8 8 8 8 7 7 8 8 9 8 7 6 5 5 5 5 6 6 7 6 6 5 5 4 4 4 4 4 4 3 3 4 5 6 6 5 5 5 5 5 5 4 4 5 5 5 6 6 6 4 4 3 4 5 6 7 7 8 8 8 8 8 9 10
10 10 10 10 10 10 10 10 10 10 10 11 11 10 9 9 9 8 8 8 8 8 8 8 7 7 8 8 8 8 8 7 7 6 5 5 5 5 6 7 7 7 6 5 4 2 1 1 2 3 3 3 4 5 5 5 5 5 5 4 4 4 4 3 4 5 5 5 6 6 6 5 5 4 4 6 7 8 8 8 8 8 8 8 9 10
10 10 10 10 10 10 10 10 10 10 11 11 11 10 10 9 9 8 8 8 8 8 8 7 7 7 8 8 8 8 8 7 7 6 5 5 5 5 6 7 7 7 7 6 5 3 1 1 1 1 3 5 6 7 5 5 5 5 4 4 4 4 3 3 3 4 5 5 5 5 6 6 6 6 5 6 7 8 8 8 8 8 8 8 8 10
Wind_Direction
302 306 309 309 307 304 301 303 303 303 302 303 303 302 302 300 299 297 296 295 294 292 292 292 294 296 299 301 303 304 304 304 303 302 301 301 301 300 299 298 297 296 296 296 297 299 300 299 299 298 298 299 298 296 294 296 299 302 302 301 300 300 301 302 302 300 297 293 290 286 284 283 282 282 281 281 280 278 277 277 276 276 276 277 277 274
299 300 302 303 302 299 297 300 300 300 300 301 301 301 301 299 298 297 296 294 292 291 291 293 295 297 299 301 301 302 302 302 301 301 301 301 300 300 299 298 297 296 295 296 298 299 301 300 300 300 300 298 295 292 293 297 300 301 300 298 296 295 295 297 297 297 297 295 292 289 286 285 283 282 281 280 279 278 277 277 276 276 276 275 275 275
299 298 297 298 296 295 294 297 296 295 295 297 298 298 298 297 296 295 295 294 293 292 293 296 298 299 299 299 299 300 300 301 301 302 302 302 301 300 300 299 298 297 297 298 300 301 302 301 300 299 298 294 292 291 295 299 299 298 296 294 292 291 292 294 295 295 295 294 292 290 288 286 284 282 281 280 279 278 278 279 279 280 279 278 276 275
295 294 294 292 290 289 290 293 294 294 292 293 294 294 293 293 292 291 291 292 293 295 296 298 299 300 299 299 298 299 300 301 302 303 303 303 303 303 302 302 301 300 299 300 300 301 300 298 297 295 293 290 291 294 297 298 297 295 293 292 292 293 295 296 295 294 293 293 293 293 290 288 285 282 280 280 280 280 280 281 282 282 282 281 280 278
290 289 289 288 287 287 289 291 292 292 291 290 289 290 289 288 287 287 288 291 294 297 299 300 300 299 299 299 299 299 300 302 303 305 305 305 305 305 305 304 302 301 300 299 298 297 296 295 294 292 291 292 293 296 297 296 296 296 295 294 294 295 295 293 291 289 289 292 293 294 294 291 288 285 282 281 280 280 280 280 281 281 282 281 280 278
287 285 285 285 285 288 291 291 291 290 289 287 285 284 284 283 284 285 288 292 295 297 298 297 297 297 296 296 297 299 301 303 305 306 307 306 306 305 304 303 302 301 300 298 296 295 294 293 293 293 294 295 295 296 296 297 298 298 297 295 294 294 293 290 288 287 287 289 292 294 296 296 295 292 288 284 281 279 279 279 279 280 280 280 279 278
286 282 282 281 282 284 287 288 289 289 288 287 285 283 282 282 284 286 290 294 294 294 292 292 292 292 293 294 297 300 303 305 306 306 306 304 303 302 301 300 300 299 297 296 294 294 294 294 294 294 294 294 294 295 296 298 299 299 298 297 297 296 296 293 290 288 288 290 292 295 297 299 298 295 291 286 282 279 277 277 278 278 279 281 281 280
283 280 277 280 283 284 283 283 285 287 287 286 286 286 285 286 287 289 290 289 289 289 290 292 293 293 295 297 300 303 304 305 305 304 303 301 300 298 298 297 297 296 295 294 294 294 294 293 293 293 293 294 294 294 295 295 295 295 295 295 295 294 292 290 289 288 287 289 291 294 297 297 295 292 289 285 282 279 278 277 276 275 276 278 279 280
277 278 278 281 285 286 285 282 282 283 285 284 285 287 290 291 291 289 289 287 288 291 296 299 300 300 299 300 302 302 302 302 302 302 301 300 298 297 295 295 294 293 294 294 294 294 293 293 293 294 295 296 296 295 294 292 291 289 287 288 288 288 287 286 286 286 286 288 290 293 294 293 292 290 287 285 283 281 280 278 275 273 271 271 273 275
270 276 283 285 284 283 284 286 286 286 286 285 285 288 292 294 295 294 293 294 296 300 303 304 303 302 301 300 300 301 301 301 300 299 298 296 295 294 293 292 292 292 292 293 293 293 294 294 295 296 297 297 297 296 294 290 287 284 284 286 288 288 288 288 288 288 289 290 291 292 292 292 291 290 289 288 287 285 283 280 277 273 270 268 269 270
274 280 287 288 286 284 283 287 290 293 295 292 288 284 282 288 293 297 299 300 303 305 304 301 300 299 300 300 301 302 303 302 300 298 296 293 292 291 291 290 290 290 291 293 294 296 297 298 298 298 297 296 295 294 293 289 286 285 286 288 288 288 287 287 288 289 290 291 292 292 293 293 293 293 293 293 292 291 289 286 281 277 273 271 270 270
281 286 287 287 289 290 290 291 293 296 299 295 290 287 284 286 291 297 300 301 303 304 302 299 296 294 296 300 303 304 304 301 298 295 293 291 290 289 290 290 291 292 293 295 297 298 299 298 297 296 294 293 292 291 289 287 286 286 287 287 285 284 283 285 287 289 292 293 294 294 294 294 295 296 297 298 298 298 297 293 288 283 278 275 272 271
283 284 281 283 289 295 300 302 302 300 296 292 292 293 293 295 297 297 295 295 297 299 300 298 296 294 295 298 301 303 302 297 293 290 289 289 289 290 292 293 294 295 297 298 297 297 295 294 293 291 290 288 287 285 283 283 283 284 285 284 283 283 284 286 289 292 294 294 294 293 293 293 294 295 297 299 301 302 301 299 295 289 284 279 275 272
286 284 282 287 294 300 304 305 303 301 298 296 295 295 296 298 299 297 293 292 293 296 298 297 296 295 296 298 299 299 297 293 290 289 288 288 289 291 294 295 295 295 294 293 291 290 289 289 288 287 285 284 282 281 280 280 281 282 282 282 283 285 288 292 294 295 295 294 294 293 292 291 292 293 294 296 296 297 298 298 297 294 290 284 279 275
290 290 293 298 302 305 306 305 301 299 298 299 299 299 299 299 298 297 296 295 297 298 298 296 294 293 293 296 298 297 295 292 291 291 290 288 289 292 297 296 293 290 288 287 286 286 286 285 284 283 282 280 278 277 277 278 279 280 281 283 286 290 294 296 297 297 295 294 293 292 291 291 292 293 293 293 292 291 291 293 294 294 293 289 285 281
292 297 303 306 306 306 306 304 301 299 300 301 301 301 301 300 300 300 299 299 299 299 297 296 295 293 291 291 294 296 296 294 293 292 291 290 291 295 297 293 289 286 284 283 283 283 284 283 282 281 280 277 276 277 279 282 284 285 287 290 293 296 297 297 296 295 293 292 291 291 291 292 293 295 296 295 293 292 290 289 289 289 290 291 290 287
296 303 306 305 304 304 303 301 299 299 300 301 300 299 298 299 300 300 297 296 294 293 291 291 293 294 296 296 297 299 303 300 296 293 291 291 292 293 291 286 283 282 281 281 281 281 283 283 283 282 280 280 283 286 289 290 291 292 293 296 297 297 296 295 294 293 292 291 291 290 290 292 295 298 301 302 302 301 298 295 290 286 285 287 289 289
301 304 305 303 302 302 302 301 299 298 298 298 298 298 298 297 296 294 290 288 286 285 284 285 287 291 297 299 302 306 309 302 297 293 290 289 289 288 285 280 278 277 279 280 280 281 282 282 282 282 285 289 293 295 294 293 294 295 297 297 296 295 293 293 292 292 291 291 290 290 290 292 295 298 301 304 305 304 303 299 293 286 280 280 282 284
304 305 304 302 301 300 300 299 299 298 297 299 301 303 300 296 292 287 283 280 278 279 282 285 287 289 291 293 297 302 307 300 295 291 289 288 287 286 283 279 277 276 277 279 280 280 280 282 284 287 291 294 294 294 293 294 296 296 295 293 292 291 291 291 291 291 291 291 291 290 290 291 292 292 292 293 294 294 295 293 289 284 279 274 274 275
303 301 301 302 302 300 297 296 295 296 298 301 303 302 298 293 287 282 276 274 274 279 285 288 289 289 289 290 293 297 302 297 292 288 286 285 284 283 282 280 279 278 278 278 279 282 286 289 294 296 295 294 294 293 294 294 293 292 290 289 288 288 289 289 290 290 291 291 292 292 292 291 290 288 287 285 284 284 284 284 284 283 280 275 271 270
298 297 297 299 299 297 295 294 293 294 297 299 299 296 291 286 281 277 274 279 285 289 291 289 289 289 291 291 292 294 297 293 289 286 284 282 281 281 282 279 277 276 277 279 283 289 295 297 298 298 295 293 293 293 292 291 289 287 286 286 287 288 289 289 290 290 291 291 291 290 290 288 287 286 285 284 282 280 278 279 281 283 284 279 275 271
294 294 295 293 290 288 287 288 289 290 292 292 290 287 283 282 281 283 290 295 296 295 294 291 290 290 291 289 289 289 289 284 280 279 280 279 279 279 280 277 277 279 281 287 293 298 297 293 291 290 289 290 290 290 289 287 286 284 284 285 287 288 289 290 290 291 291 290 290 289 289 288 289 291 293 292 290 287 283 282 283 284 284 282 278 274
289 289 290 288 285 282 282 284 285 286 286 284 282 281 281 285 291 296 301 300 298 296 295 293 291 290 288 285 284 281 277 268 265 266 270 273 276 279 286 290 291 291 289 294 297 296 290 286 285 285 287 287 287 287 285 284 283 283 284 286 288 289 290 290 290 290 290 290 289 289 289 292 294 296 297 295 292 290 287 285 284 282 281 280 277 274
287 287 287 286 283 281 281 281 283 284 285 284 283 284 286 290 293 296 298 299 298 297 296 294 292 289 285 283 281 277 270 259 254 255 261 270 278 285 295 297 294 290 288 290 291 291 289 286 284 283 283 282 282 281 281 281 282 284 286 288 289 290 290 290 290 290 289 289 289 289 290 292 293 294 292 290 288 286 284 282 281 280 278 277 276 274
289 289 289 289 288 287 286 287 289 291 293 292 291 292 294 296 297 298 299 300 299 297 295 292 290 288 288 288 286 282 277 266 259 257 264 275 282 287 292 293 291 288 288 290 290 291 290 286 283 280 278 277 277 278 279 281 283 286 287 288 289 289 289 289 289 289 290 290 291 292 293 294 294 293 291 289 286 283 281 279 278 277 276 275 274 273
294 294 294 294 294 294 295 296 297 298 298 298 298 299 301 302 303 302 301 300 298 296 294 290 288 288 290 290 288 286 286 279 271 267 271 280 284 286 290 291 290 289 291 292 292 292 289 286 283 280 276 275 276 277 280 283 285 287 287 288 288 289 289 290 290 291 292 293 293 294 293 293 292 291 290 287 285 282 279 277 276 274 273 273 272 271
297 297 298 298 299 299 299 299 299 299 300 300 300 301 303 304 303 301 297 297 297 296 293 290 289 289 289 287 286 286 290 291 286 278 278 282 285 287 293 296 295 293 293 292 291 289 287 284 282 280 277 276 277 280 282 284 285 286 287 287 288 289 290 291 292 292 293 292 292 292 291 290 290 289 288 286 283 281 279 276 274 272 271 270 269 267
301 302 302 301 301 300 300 300 300 300 300 300 300 301 302 301 299 296 294 296 295 293 288 288 288 289 288 287 287 289 295 297 296 294 293 289 288 290 298 301 298 295 293 292 290 287 284 282 280 278 276 275 276 280 282 283 284 285 286 287 288 289 289 290 291 291 291 291 290 290 290 289 289 288 287 285 282 280 277 274 272 270 268 265 261 258
302 301 300 299 299 299 299 299 299 298 298 298 298 299 300 297 293 290 290 292 290 287 284 284 284 285 286 287 290 292 295 297 300 305 309 298 290 290 298 299 297 296 295 294 291 287 279 276 275 275 276 275 277 281 283 283 284 286 286 286 286 286 287 288 289 290 290 290 290 290 290 289 288 287 286 283 281 278 276 273 270 267 262 257 251 248
302 300 298 297 297 297 296 295 294 293 294 295 296 297 296 292 287 284 284 285 283 281 281 282 283 285 288 292 295 296 294 297 305 311 311 298 292 291 296 295 294 295 298 298 295 290 282 274 270 271 281 286 290 292 291 287 285 284 284 283 283 283 284 286 288 289 290 290 290 290 290 289 287 286 284 282 279 277 274 271 267 262 253 246 240 238
302 299 295 294 293 292 290 288 288 289 291 293 294 294 292 287 282 278 277 277 277 277 279 282 285 288 292 296 298 297 296 303 309 310 304 294 289 290 295 293 292 292 293 294 296 297 296 290 280 276 293 301 301 298 293 288 283 280 279 279 280 281 283 286 288 290 291 291 291 290 289 287 286 284 283 281 279 276 273 270 265 259 248 239 233 230
300 296 293 292 290 288 287 287 288 289 291 292 291 289 286 283 279 276 274 274 274 275 278 283 286 289 291 291 290 291 295 301 305 304 299 292 288 288 291 290 290 289 287 282 283 288 295 299 302 305 306 303 301 298 293 287 282 278 277 278 279 281 283 287 290 291 292 291 290 289 288 286 285 284 283 281 280 278 275 271 265 258 246 236 229 225
295 293 291 290 289 288 288 289 291 292 292 290 288 286 283 281 279 276 273 272 272 275 279 284 287 288 287 284 283 283 287 293 297 299 298 295 291 289 289 288 288 288 288 281 276 276 279 290 302 309 305 300 297 295 293 287 282 278 277 279 280 282 285 289 290 291 291 290 289 288 287 286 285 285 284 284 283 281 279 275 269 261 248 235 225 220
293 291 290 289 288 288 289 291 293 293 293 291 289 287 284 281 279 277 275 273 274 276 279 282 285 286 286 284 282 281 283 287 293 297 299 296 292 288 289 288 288 289 289 284 279 276 275 287 299 305 302 297 294 291 290 289 286 283 282 283 284 287 289 291 292 291 290 289 287 285 285 285 285 285 286 288 288 289 288 285 278 268 250 232 217 210
292 291 290 289 290 292 294 295 296 295 294 292 290 288 286 284 282 279 278 277 276 276 277 278 279 281 283 284 284 284 284 287 292 295 297 293 290 288 288 287 288 290 289 286 285 286 289 295 298 299 297 295 294 292 291 293 296 298 296 292 290 290 291 293 293 292 290 288 286 284 283 284 285 287 290 294 297 299 299 299 293 281 254 224 206 198
292 291 291 291 293 295 298 298 298 298 296 294 292 290 289 287 285 282 280 279 278 278 277 276 274 274 275 277 279 281 284 286 290 291 291 289 288 287 286 287 288 288 287 288 291 295 297 295 293 292 291 293 296 300 304 309 311 311 307 303 298 295 292 291 290 290 289 288 287 286 285 286 288 292 296 301 304 306 308 312 315 312 260 203 191 188
292 292 292 294 296 298 299 299 299 299 298 296 295 293 292 289 287 285 282 280 278 277 276 275 273 271 269 269 271 274 278 282 285 285 285 284 284 284 282 283 283 284 286 290 293 294 291 289 289 290 290 294 301 309 315 318 318 315 310 307 304 299 294 291 288 286 286 286 287 289 291 293 296 300 304 307 309 311 314 324 339 352 2 177 179 182
294 294 295 296 298 299 299 300 300 299 298 298 297 295 293 291 288 286 284 281 278 276 275 274 273 271 270 270 269 270 273 276 278 279 280 280 279 278 277 280 282 284 286 287 286 285 284 287 293 299 300 302 306 310 314 317 317 315 312 309 305 299 294 291 287 285 285 287 291 295 299 301 303 307 310 313 315 318 320 333 353 5 13 129 178 184
296 297 298 299 300 300 300 299 299 298 298 297 296 294 292 290 288 287 284 283 280 278 277 276 274 273 272 271 271 271 272 273 275 276 277 277 276 275 276 281 284 285 283 279 278 280 286 295 303 307 307 307 309 311 313 314 314 313 312 311 307 302 297 295 293 291 290 293 299 303 306 307 311 313 315 318 322 326 330 338 353 3 7 11 39 186
299 299 299 300 300 299 298 296 296 296 296 295 294 293 292 290 289 288 287 284 283 281 279 277 275 273 271 271 271 271 272 272 274 274 275 273 272 273 276 279 280 280 279 277 278 285 300 305 305 303 303 304 306 308 311 311 312 312 314 313 312 310 308 305 300 296 294 298 304 308 311 314 318 320 320 322 325 330 336 342 350 357 1 5 11 21
302 301 300 300 299 297 294 294 293 294 294 294 294 293 292 292 292 292 291 288 286 284 283 281 279 275 273 271 270 271 271 271 272 272 272 272 271 272 275 277 279 283 289 296 302 306 307 303 301 299 298 298 299 301 302 305 307 309 310 309 306 305 306 303 299 297 300 306 310 312 316 319 322 324 322 322 326 332 341 347 352 356 0 4 10 17
301 301 300 299 298 297 295 295 294 294 294 294 294 293 293 294 294 295 294 294 292 291 290 289 287 285 283 280 277 274 271 270 270 272 273 274 276 278 282 288 298 311 321 318 311 305 299 294 290 288 288 291 294 297 299 301 304 305 305 302 302 302 301 299 299 304 317 315 315 317 322 323 324 323 320 322 327 336 348 357 3 7 8 6 10 18
300 299 297 297 296 295 295 296 297 297 297 296 295 293 293 293 294 294 294 294 294 294 294 292 290 289 287 286 286 284 280 276 275 275 276 279 283 291 306 320 329 331 326 314 305 299 293 286 281 279 281 285 289 293 296 300 302 302 300 298 300 302 301 307 316 323 323 318 317 319 323 323 320 317 315 322 334 348 357 4 9 12 13 10 14 22
296 295 295 295 295 295 297 298 298 299 299 297 296 294 293 293 293 294 293 293 292 293 293 292 290 287 285 287 290 295 297 290 284 280 278 287 304 328 343 337 327 318 311 302 298 295 294 288 283 280 282 287 290 292 295 297 299 299 297 294 291 289 287 303 315 320 319 318 319 321 323 321 315 310 312 337 357 7 8 7 8 10 12 13 19 27
294 295 296 297 298 299 300 299 299 299 298 297 295 294 294 295 295 294 293 292 292 292 292 293 292 291 289 293 298 302 302 299 294 287 280 301 329 341 342 331 320 311 303 296 293 292 293 293 294 295 297 293 291 290 292 294 295 296 296 298 297 294 292 298 305 310 314 319 322 324 324 318 312 309 329 5 17 18 14 13 12 13 13 16 22 29
296 298 299 300 301 300 300 300 300 299 298 296 295 295 295 296 295 293 292 292 292 292 292 294 293 293 294 301 305 307 305 303 302 303 307 321 334 337 332 322 315 307 300 293 287 284 283 285 290 296 299 294 288 285 285 291 295 300 304 309 310 309 305 302 303 309 317 323 325 326 323 319 317 329 9 27 29 26 21 18 17 16 15 19 25 32
300 301 302 301 300 300 299 300 301 300 298 297 297 296 296 296 295 293 292 292 292 293 294 294 293 292 294 301 306 308 307 308 311 316 323 327 329 328 326 320 313 306 299 292 285 279 274 273 276 281 286 289 292 294 296 300 302 304 306 310 311 309 306 306 312 319 328 331 331 330 327 328 337 360 26 38 39 35 28 22 19 17 17 21 28 35
302 302 302 302 301 300 301 301 302 301 300 299 297 297 296 296 297 297 295 295 295 296 296 296 295 295 297 302 305 307 308 312 316 321 326 329 331 331 330 325 318 310 302 295 287 280 271 264 261 263 270 282 296 307 313 312 309 305 304 306 308 308 308 312 320 331 337 338 337 336 336 342 352 6 24 41 45 41 35 28 22 19 18 23 31 39
302 301 301 301 301 301 301 302 303 302 300 299 299 298 297 297 298 298 296 297 297 297 296 296 297 300 303 307 308 310 312 315 318 322 326 331 335 336 334 330 325 320 314 306 296 281 263 251 245 247 260 281 304 315 316 314 311 308 305 306 308 309 309 318 329 339 343 342 343 345 350 355 356 2 25 48 51 47 41 34 27 21 19 25 35 44
301 300 300 301 301 301 301 302 302 302 300 300 300 299 299 299 299 298 296 296 296 295 294 296 299 303 307 310 312 314 317 320 322 324 329 336 341 341 337 333 331 329 327 326 322 312 274 234 233 248 276 312 327 327 315 315 314 314 312 313 313 314 315 326 338 346 349 349 350 354 2 5 3 6 28 49 54 52 46 39 32 24 19 27 40 51
302 301 300 300 300 300 301 301 301 300 299 299 300 300 300 300 300 300 299 298 297 296 295 296 300 304 309 312 314 317 321 322 323 325 331 341 346 345 340 336 335 335 336 337 337 338 360 52 37 310 309 335 343 341 321 318 320 323 324 324 324 324 326 335 344 350 355 358 1 6 13 16 15 16 26 45 52 53 48 41 34 25 18 26 42 55